Location: Newark
(40.7360°N, 74.1730°W)
Time: 17:05:13
(UTC-05:00)

Amateur Radio Satellites - All Passes

Search period start: 10 February 2016 16:35
Search period end: 11 February 2016 16:35
Location: Newark, 40.7360°N, 74.1730°W

Satellite Date Start Highest point End Downlink Frequencies (MHz)
Time Altitude Azimuth
YUBILEINY 10 Feb 16:41:18 16:44:50 13° 286° (WNW) 16:48:22 435.215
Cosmos 2491 10 Feb 16:44:30 16:51:32 27° 293° (WNW) 16:58:38 435.465 / 435.565
BRITE-PL 10 Feb 16:44:31 16:48:43 22° 65° (ENE) 16:52:50 437.365/2234.400
HORYU 2 10 Feb 16:51:45 16:54:09 14° 268° (W) 16:56:34 437.375
BEESAT 2 10 Feb 16:53:30 16:57:25 54° 118° (ESE) 17:01:22 435.950
O/OREOS (USA 219) 10 Feb 16:55:34 16:59:48 35° 62° (ENE) 17:04:02 437.305
ISS 10 Feb 17:04:25 17:06:56 20° 340° (NNW) 17:09:26 145.825
CUBESAT XI-V 10 Feb 17:05:35 17:09:51 33° 96° (E) 17:14:04 437.345
AO-7 10 Feb 17:11:47 17:14:19 11° 273° (W) 17:16:53 29.400- 29.500
DOVE 4 10 Feb 17:26:21 17:28:35 13° 63° (ENE) 17:30:47 437.250
AO-85 10 Feb 17:35:50 17:39:44 21° 41° (NE) 17:43:25 145.980
GOMX 1 10 Feb 17:45:44 17:50:42 39° 71° (ENE) 17:55:29 467.674
Cosmos 2504 10 Feb 17:45:49 17:51:56 22° 281° (W) 17:57:47 435.465 / 435.565
CUTE-I 10 Feb 17:52:34 17:57:45 54° 260° (W) 18:03:00 437.470
LilacSat-2 10 Feb 17:58:28 18:02:06 41° 262° (W) 18:05:43 437.200
STRAND 1 10 Feb 18:04:33 18:07:58 18° 92° (E) 18:11:22 437.568
RS-15 10 Feb 18:04:47 18:15:11 32° 31° (NNE) 18:25:47 29.354- 29.394
PCSat 10 Feb 18:05:53 18:09:15 16° 42° (NE) 18:12:38 145.827
Cubesat XI-IV 10 Feb 18:06:51 18:11:49 40° 262° (W) 18:16:50 437.490
BEESAT 3 10 Feb 18:07:03 18:09:54 19° 315° (NW) 18:12:46 437.485
GONETS M04 10 Feb 18:10:45 18:16:48 20° 63° (ENE) 18:22:50
CINEMA 3 10 Feb 18:15:26 18:17:23 13° 64° (ENE) 18:19:18 145.822/145.860
CUTE 1.7 + AOD 2 10 Feb 18:17:34 18:19:49 14° 64° (ENE) 18:22:04 437.475
BRITE-PL 10 Feb 18:21:10 18:26:46 56° 261° (W) 18:32:14 437.365/2234.400
SEEDS 10 Feb 18:23:11 18:24:52 12° 63° (ENE) 18:26:33 437.485
BEESAT 2 10 Feb 18:33:01 18:35:38 17° 316° (NW) 18:38:16 435.950
HO-68 10 Feb 18:34:05 18:40:43 43° 65° (ENE) 18:47:24 435.675
O/OREOS (USA 219) 10 Feb 18:35:26 18:38:58 22° 258° (WSW) 18:42:31 437.305
ISS 10 Feb 18:42:56 18:44:20 12° 0° (N) 18:45:43 145.825
CUBESAT XI-V 10 Feb 18:43:16 18:47:04 25° 293° (WNW) 18:50:51 437.345
AIST 2 10 Feb 18:54:36 18:58:46 75° 304° (WNW) 19:02:57 435.215
Cosmos 2499 10 Feb 18:58:37 19:03:22 16° 59° (ENE) 19:07:55 435.465 / 435.565
DOVE 4 10 Feb 19:00:37 19:05:44 77° 258° (WSW) 19:10:36 437.250
CANX-2 10 Feb 19:00:42 19:04:43 47° 73° (ENE) 19:08:47 2200.000
AO-85 10 Feb 19:15:43 19:20:48 66° 242° (WSW) 19:25:26 145.980
GOMX 1 10 Feb 19:24:17 19:28:48 27° 265° (W) 19:33:12 467.674
COMPASS 1 10 Feb 19:40:13 19:44:19 65° 75° (ENE) 19:48:27 437.405
STRAND 1 10 Feb 19:42:26 19:47:28 55° 288° (WNW) 19:52:29 437.568
DELFI C3 10 Feb 19:43:03 19:44:34 12° 64° (ENE) 19:46:04 145.870
Oscar 11 10 Feb 19:46:47 19:50:22 26° 69° (ENE) 19:53:58 145.826/435.025
PCSat 10 Feb 19:47:58 19:53:26 90° 246° (WSW) 19:58:51 145.827
CINEMA 3 10 Feb 19:49:26 19:54:02 66° 259° (W) 19:58:27 145.822/145.860
UWE-3 10 Feb 19:50:23 19:54:07 31° 71° (ENE) 19:57:50 435.000/436.395/437.385
CUBEBUG 2 10 Feb 19:51:03 19:55:09 44° 73° (ENE) 19:59:11 437.445
CUTE 1.7 + AOD 2 10 Feb 19:51:09 19:55:14 50° 260° (W) 19:59:22 437.475
PRISM 10 Feb 19:55:29 19:59:41 74° 103° (ESE) 20:03:50 437.425
SEEDS 10 Feb 19:55:57 20:00:03 60° 259° (W) 20:04:13 437.485
GONETS M04 10 Feb 20:05:59 20:14:50 88° 262° (W) 20:23:41
AAUSAT CUBESAT 2 10 Feb 20:08:03 20:12:10 73° 259° (W) 20:16:20 437.432
RS-15 10 Feb 20:17:28 20:29:44 84° 58° (ENE) 20:42:07 29.354- 29.394
ISS 10 Feb 20:19:13 20:21:44 20° 20° (NNE) 20:24:14 145.825
HO-68 10 Feb 20:21:56 20:28:27 37° 263° (W) 20:35:02 435.675
AIST 1 10 Feb 20:31:26 20:34:28 18° 72° (ENE) 20:37:28
AIST 2 10 Feb 20:36:57 20:38:00 11° 322° (NW) 20:39:02 435.215
CANX-2 10 Feb 20:38:36 20:40:50 14° 269° (W) 20:43:06 2200.000
ZACube-1 10 Feb 20:41:55 20:46:08 84° 75° (ENE) 20:50:18 437.345
Cosmos 2499 10 Feb 20:49:36 20:58:04 81° 82° (E) 21:05:48 435.465 / 435.565
FUNcube-1 10 Feb 20:50:31 20:54:43 81° 258° (WSW) 20:58:54 145.935
HUMSAT D 10 Feb 20:53:31 20:57:08 31° 70° (ENE) 21:00:45 437.325/437.525
DELFI C3 10 Feb 21:15:06 21:18:59 55° 260° (W) 21:22:55 145.870
AISAT 10 Feb 21:15:59 21:18:06 13° 62° (ENE) 21:20:13 437.250
50 SAT 10 Feb 21:19:16 21:20:51 12° 65° (ENE) 21:22:28 437.505
Oscar 11 10 Feb 21:22:48 21:26:25 26° 265° (W) 21:30:04 145.826/435.025
UKube-1 10 Feb 21:23:38 21:25:47 14° 63° (ENE) 21:27:57 .
UWE-3 10 Feb 21:27:23 21:30:38 21° 266° (W) 21:33:51 435.000/436.395/437.385
CUBEBUG 2 10 Feb 21:29:28 21:32:00 15° 268° (W) 21:34:29 437.445
CUBEBUG 1 10 Feb 21:32:24 21:35:00 15° 64° (ENE) 21:37:35 437.445
PRISM 10 Feb 21:33:53 21:34:23 10° 299° (WNW) 21:34:53 437.425
PCSat 10 Feb 21:34:24 21:35:59 11° 258° (WSW) 21:37:33 145.827
DX 1 10 Feb 21:35:58 21:39:18 22° 66° (ENE) 21:42:39 434.975-435.025
ESTCUBE 1 10 Feb 21:39:45 21:43:25 25° 67° (ENE) 21:47:07 437.505/2401.250
ANTELSAT 10 Feb 21:48:03 21:51:52 29° 97° (E) 21:55:44 437.575/2403.000
TIGRISAT 10 Feb 21:54:31 21:58:27 32° 97° (E) 22:02:25 435.000
ISS 10 Feb 21:55:14 21:58:29 75° 218° (SW) 22:01:43 145.825
GONETS M04 10 Feb 22:05:14 22:10:18 17° 283° (WNW) 22:15:23
AIST 1 10 Feb 22:08:13 22:12:13 36° 269° (W) 22:16:08
HUMSAT D 10 Feb 22:29:50 22:32:50 20° 266° (W) 22:35:51 437.325/437.525
RS-15 10 Feb 22:31:24 22:40:51 28° 258° (WSW) 22:50:23 29.354- 29.394
VELOX 1 10 Feb 22:32:41 22:37:09 80° 75° (ENE) 22:41:39 145.980
UNISAT 6 10 Feb 22:39:15 22:43:35 74° 285° (WNW) 22:48:01 437.425
BUGSAT 1 10 Feb 22:40:16 22:41:16 11° 91° (E) 22:42:16 437.445
POLYITAN 1 10 Feb 22:41:00 22:44:33 26° 96° (E) 22:48:04 437.675
QB50P2 10 Feb 22:41:33 22:45:10 27° 96° (E) 22:48:46 145.880/145.840
Cosmos 2499 10 Feb 22:44:39 22:49:58 19° 282° (WNW) 22:55:03 435.465 / 435.565
AISAT 10 Feb 22:49:38 22:54:03 63° 259° (WSW) 22:58:30 437.250
50 SAT 10 Feb 22:50:57 22:54:29 44° 261° (W) 22:58:04 437.505
UKube-1 10 Feb 22:57:05 23:01:21 58° 259° (W) 23:05:39 .
SPROUT 10 Feb 23:04:43 23:08:53 51° 73° (ENE) 23:13:03 437.525
CUBEBUG 1 10 Feb 23:06:32 23:10:51 52° 260° (W) 23:15:13 437.445
POPSAT HIP 1 10 Feb 23:10:40 23:14:48 56° 101° (E) 23:18:55 437.405
TISAT 1 10 Feb 23:10:51 23:14:09 22° 68° (ENE) 23:17:27 437.305
DX 1 10 Feb 23:11:17 23:15:17 34° 262° (W) 23:19:18 434.975-435.025
NANOSAT C BR1 10 Feb 23:14:43 23:18:52 61° 101° (E) 23:23:00 145.865
DUCHIFAT 1 10 Feb 23:15:41 23:19:50 59° 101° (E) 23:23:57 145.980
ESTCUBE 1 10 Feb 23:16:04 23:20:05 31° 263° (W) 23:24:09 437.505/2401.250
QB50P1 10 Feb 23:23:10 23:27:23 80° 105° (ESE) 23:31:35 145.935-145.965
ANTELSAT 10 Feb 23:24:56 23:28:28 25° 292° (WNW) 23:32:03 437.575/2403.000
TIGRISAT 10 Feb 23:31:37 23:34:58 22° 292° (WNW) 23:38:21 435.000
SWISSCUBE 10 Feb 23:42:02 23:43:40 12° 60° (ENE) 23:45:19 437.505
CUSAT 1 10 Feb 23:46:06 23:50:34 16° 80° (E) 23:55:02 437.405
BUGSAT 1 11 Feb 00:13:03 00:17:01 55° 286° (WNW) 00:20:56 437.445
POLYITAN 1 11 Feb 00:16:49 00:20:17 25° 292° (WNW) 00:23:45 437.675
ITUPSAT 1 11 Feb 00:17:00 00:20:44 23° 66° (ENE) 00:24:28 437.325
QB50P2 11 Feb 00:17:27 00:20:52 24° 292° (WNW) 00:24:17 145.880/145.840
PHONESAT 2.4 11 Feb 00:21:37 00:24:36 32° 157° (SSE) 00:27:34 2401.200-2431.200
BEESAT 11 Feb 00:24:25 00:28:26 28° 67° (ENE) 00:32:28 436.000
DANDE 11 Feb 00:26:59 00:32:19 20° 80° (E) 00:37:57 436.750
JAS-2 11 Feb 00:35:37 00:39:10 17° 90° (E) 00:42:34 435.910
SPROUT 11 Feb 00:43:01 00:45:09 13° 269° (W) 00:47:18 437.525
TISAT 1 11 Feb 00:45:56 00:49:40 30° 263° (W) 00:53:25 437.305
BEESAT 3 11 Feb 00:46:13 00:49:35 26° 49° (NE) 00:52:54 437.485
POPSAT HIP 1 11 Feb 00:48:10 00:50:07 13° 297° (WNW) 00:52:04 437.405
NANOSAT C BR1 11 Feb 00:52:29 00:54:05 12° 297° (WNW) 00:55:43 145.865
DUCHIFAT 1 11 Feb 00:53:21 00:55:02 12° 297° (WNW) 00:56:43 145.980
Cosmos 2491 11 Feb 00:56:28 01:04:06 32° 70° (ENE) 01:11:43 435.465 / 435.565
BEESAT 2 11 Feb 01:12:17 01:15:52 30° 50° (NE) 01:19:24 435.950
SWISSCUBE 11 Feb 01:16:01 01:20:46 82° 257° (WSW) 01:25:36 437.505
CUSAT 1 11 Feb 01:23:44 01:31:42 79° 97° (E) 01:39:44 437.405
Oscar 19 11 Feb 01:31:56 01:37:06 86° 104° (ESE) 01:42:13 437.125/150
KKS-1 11 Feb 01:46:25 01:50:07 26° 68° (ENE) 01:53:48 437.445
YUBILEINY 11 Feb 01:46:34 01:53:31 27° 82° (E) 02:00:31 435.215
MOZHAYETS 4 11 Feb 01:50:42 01:52:06 11° 61° (ENE) 01:53:30
ITUPSAT 1 11 Feb 01:53:55 01:58:21 38° 262° (W) 02:02:48 437.325
PHONESAT 2.4 11 Feb 01:58:23 02:01:41 82° 173° (S) 02:04:58 2401.200-2431.200
BEESAT 11 Feb 02:01:55 02:06:07 31° 263° (W) 02:10:21 436.000
DANDE 11 Feb 02:06:20 02:14:08 88° 279° (W) 02:22:43 436.750
Gurwin Techsat 1B 11 Feb 02:11:56 02:17:17 77° 103° (ESE) 02:22:36 435.225
JAS-2 11 Feb 02:19:18 02:24:48 55° 289° (WNW) 02:29:53 435.910
BEESAT 3 11 Feb 02:23:53 02:27:18 28° 246° (WSW) 02:30:41 437.485
Cosmos 2504 11 Feb 02:42:18 02:44:05 11° 72° (ENE) 02:45:53 435.465 / 435.565
ITAMSAT 1 11 Feb 02:43:12 02:48:28 78° 103° (ESE) 02:53:43 435.822/435.867
BEESAT 2 11 Feb 02:50:25 02:53:36 23° 247° (WSW) 02:56:47 435.950
Cosmos 2491 11 Feb 02:52:52 03:01:19 56° 270° (W) 03:09:46 435.465 / 435.565
STARS 11 Feb 03:01:44 03:06:08 90° 227° (SW) 03:10:33 437.465
CUSAT 1 11 Feb 03:08:28 03:14:44 24° 294° (WNW) 03:20:57 437.405
Oscar 19 11 Feb 03:13:39 03:15:40 12° 301° (WNW) 03:17:42 437.125/150
AO-7 11 Feb 03:13:56 03:21:45 42° 100° (E) 03:29:28 29.400- 29.500
AIST 2 11 Feb 03:16:19 03:20:26 63° 56° (NE) 03:24:30 435.215
KKS-1 11 Feb 03:22:41 03:26:35 29° 264° (W) 03:30:29 437.445
MOZHAYETS 4 11 Feb 03:24:03 03:28:37 78° 259° (W) 03:33:14
PHONESAT 2.4 11 Feb 03:35:39 03:38:55 73° 190° (S) 03:42:11 2401.200-2431.200
YUBILEINY 11 Feb 03:40:55 03:49:36 64° 281° (W) 03:58:23 435.215
DANDE 11 Feb 03:52:29 03:58:17 21° 299° (WNW) 04:04:20 436.750
Gurwin Techsat 1B 11 Feb 03:53:42 03:56:34 15° 300° (WNW) 03:59:25 435.225
CUBESAT XI-V 11 Feb 04:08:34 04:12:43 32° 69° (ENE) 04:16:53 437.345
ITAMSAT 1 11 Feb 04:24:34 04:27:16 14° 300° (WNW) 04:29:58 435.822/435.867
Cosmos 2504 11 Feb 04:27:07 04:35:31 63° 91° (E) 04:44:16 435.465 / 435.565
SO-50 11 Feb 04:27:50 04:32:43 75° 121° (ESE) 04:37:41 436.795
M-CUBED/EXP-1 PRIME 11 Feb 04:30:16 04:33:41 83° 289° (WNW) 04:37:18 437.505
AUBIESAT-1 11 Feb 04:38:54 04:42:23 80° 286° (WNW) 04:46:03 437.475
HORYU 2 11 Feb 04:40:27 04:44:55 76° 285° (WNW) 04:49:21 437.375
AIST 2 11 Feb 04:56:56 04:58:23 12° 252° (WSW) 04:59:50 435.215
AO-7 11 Feb 05:06:45 05:14:29 45° 298° (WNW) 05:22:11 29.400- 29.500
PHONESAT 2.4 11 Feb 05:13:11 05:15:56 25° 206° (SSW) 05:18:39 2401.200-2431.200
STRAND 1 11 Feb 05:20:00 05:24:08 25° 65° (ENE) 05:28:18 437.568
LilacSat-2 11 Feb 05:32:43 05:35:33 20° 94° (E) 05:38:21 437.200
YUBILEINY 11 Feb 05:45:15 05:48:27 12° 304° (NW) 05:51:39 435.215
CUBESAT XI-V 11 Feb 05:46:12 05:50:05 26° 265° (W) 05:54:02 437.345
CUTE-I 11 Feb 06:09:41 06:15:02 62° 101° (ESE) 06:20:21 437.470
SO-50 11 Feb 06:10:22 06:13:47 18° 319° (NW) 06:17:13 436.795
Cosmos 2504 11 Feb 06:22:10 06:29:29 30° 292° (WNW) 06:37:03 435.465 / 435.565
Cubesat XI-IV 11 Feb 06:23:49 06:29:14 83° 103° (ESE) 06:34:37 437.490
BRITE-PL 11 Feb 06:27:14 06:31:48 50° 98° (E) 06:36:02 437.365/2234.400
PRISM 11 Feb 06:44:33 06:48:34 50° 73° (ENE) 06:52:37 437.425
STRAND 1 11 Feb 06:58:20 07:03:05 39° 262° (W) 07:07:53 437.568
DOVE 4 11 Feb 07:00:44 07:04:16 26° 95° (E) 07:07:44 437.250
LilacSat-2 11 Feb 07:06:40 07:09:51 26° 290° (WNW) 07:13:03 437.200
O/OREOS (USA 219) 11 Feb 07:07:28 07:11:41 42° 106° (ESE) 07:15:56 437.305
GONETS M04 11 Feb 07:13:00 07:19:05 22° 79° (E) 07:25:11
GOMX 1 11 Feb 07:26:02 07:30:27 77° 284° (WNW) 07:34:38 467.674
COMPASS 1 11 Feb 07:26:04 07:27:03 11° 90° (E) 07:28:02 437.405
CUTE 1.7 + AOD 2 11 Feb 07:36:36 07:40:15 27° 95° (E) 07:43:55 437.475
Cosmos 2499 11 Feb 07:37:48 07:40:55 12° 73° (ENE) 07:44:04 435.465 / 435.565
SEEDS 11 Feb 07:40:42 07:44:04 22° 94° (E) 07:47:26 437.485
CINEMA 3 11 Feb 07:44:46 07:48:18 26° 96° (E) 07:51:50 145.822/145.860
HO-68 11 Feb 07:49:07 07:55:58 45° 99° (E) 08:02:46 435.675
CUTE-I 11 Feb 07:51:01 07:54:33 18° 298° (WNW) 07:58:06 437.470
AAUSAT CUBESAT 2 11 Feb 07:51:41 07:54:34 18° 93° (E) 07:57:26 437.432
Cubesat XI-IV 11 Feb 08:05:57 08:08:34 14° 301° (WNW) 08:11:12 437.490
BRITE-PL 11 Feb 08:06:55 08:09:48 16° 297° (WNW) 08:12:34 437.365/2234.400
CANX-2 11 Feb 08:21:28 08:25:47 81° 282° (WNW) 08:30:04 2200.000
PRISM 11 Feb 08:22:11 08:24:10 13° 268° (W) 08:26:11 437.425
ZACube-1 11 Feb 08:31:32 08:34:08 16° 92° (E) 08:36:47 437.345
DOVE 4 11 Feb 08:38:30 08:41:55 24° 292° (WNW) 08:45:17 437.250
FUNcube-1 11 Feb 08:39:30 08:42:30 19° 94° (E) 08:45:31 145.935
ANTELSAT 11 Feb 08:47:04 08:50:35 25° 68° (ENE) 08:54:05 437.575/2403.000
O/OREOS (USA 219) 11 Feb 08:48:00 08:51:17 20° 304° (NW) 08:54:36 437.305
PCSat 11 Feb 08:50:18 08:51:52 11° 102° (ESE) 08:53:26 145.827
TIGRISAT 11 Feb 08:53:16 08:56:56 28° 69° (ENE) 09:00:33 435.000
DELFI C3 11 Feb 08:54:08 08:57:03 19° 94° (E) 08:59:57 145.870
COMPASS 1 11 Feb 08:58:50 09:03:01 62° 285° (WNW) 09:07:11 437.405
AIST 1 11 Feb 09:02:42 09:03:51 11° 83° (E) 09:05:00
GONETS M04 11 Feb 09:06:12 09:14:53 77° 279° (W) 09:23:39
Oscar 11 11 Feb 09:09:23 09:13:39 55° 100° (E) 09:17:55 145.826/435.025
CUTE 1.7 + AOD 2 11 Feb 09:12:27 09:16:01 26° 291° (WNW) 09:19:34 437.475
UWE-3 11 Feb 09:15:45 09:19:58 73° 102° (ESE) 09:24:15 435.000/436.395/437.385
SEEDS 11 Feb 09:16:03 09:19:47 30° 290° (WNW) 09:23:30 437.485
CUBEBUG 2 11 Feb 09:18:10 09:22:22 75° 284° (WNW) 09:26:38 437.445
CINEMA 3 11 Feb 09:22:01 09:25:22 24° 291° (WNW) 09:28:44 145.822/145.860
Cosmos 2499 11 Feb 09:23:41 09:32:17 68° 93° (E) 09:41:05 435.465 / 435.565
AAUSAT CUBESAT 2 11 Feb 09:26:19 09:30:12 37° 288° (WNW) 09:34:04 437.432
AO-85 11 Feb 09:28:38 09:33:45 49° 116° (ESE) 09:39:03 145.980
POLYITAN 1 11 Feb 09:33:56 09:37:01 20° 67° (ENE) 09:40:07 437.675
QB50P2 11 Feb 09:34:24 09:37:35 21° 67° (ENE) 09:40:46 145.880/145.840
HO-68 11 Feb 09:37:06 09:43:30 36° 297° (WNW) 09:49:54 435.675
UNISAT 6 11 Feb 09:37:42 09:42:02 88° 263° (W) 09:46:20 437.425
POPSAT HIP 1 11 Feb 10:02:50 10:06:47 40° 72° (ENE) 10:10:45 437.405
NANOSAT C BR1 11 Feb 10:06:31 10:10:31 43° 72° (ENE) 10:14:31 145.865
ZACube-1 11 Feb 10:06:38 10:10:37 42° 287° (WNW) 10:14:41 437.345
DUCHIFAT 1 11 Feb 10:07:16 10:11:15 41° 72° (ENE) 10:15:13 145.980
HUMSAT D 11 Feb 10:12:06 10:16:15 63° 101° (E) 10:20:26 437.325/437.525
FUNcube-1 11 Feb 10:14:59 10:18:51 36° 289° (WNW) 10:22:47 145.935
QB50P1 11 Feb 10:15:07 10:19:16 56° 74° (ENE) 10:23:24 145.935-145.965
50 SAT 11 Feb 10:23:28 10:25:57 17° 93° (E) 10:28:27 437.505
ANTELSAT 11 Feb 10:23:32 10:27:13 27° 264° (W) 10:30:53 437.575/2403.000
VELOX 1 11 Feb 10:24:36 10:27:12 15° 92° (E) 10:29:47 145.980
DELFI C3 11 Feb 10:28:24 10:32:01 32° 289° (WNW) 10:35:38 145.870
PCSat 11 Feb 10:28:59 10:34:25 90° 112° (ESE) 10:39:53 145.827
TIGRISAT 11 Feb 10:30:04 10:33:35 24° 265° (W) 10:37:06 435.000
AIST 1 11 Feb 10:36:30 10:40:51 62° 280° (W) 10:45:15
RS-15 11 Feb 10:40:15 10:50:54 56° 112° (ESE) 11:02:06 29.354- 29.394
AISAT 11 Feb 10:40:46 10:44:21 24° 95° (E) 10:47:55 437.250
UKube-1 11 Feb 10:45:06 10:48:32 23° 95° (E) 10:51:57 .
Oscar 11 11 Feb 10:47:03 10:49:20 14° 296° (WNW) 10:51:36 145.826/435.025
JAS-2 11 Feb 10:49:25 10:52:00 12° 55° (NE) 10:54:33 435.910
UWE-3 11 Feb 10:55:18 10:55:52 10° 298° (WNW) 10:56:26 435.000/436.395/437.385
CUBEBUG 1 11 Feb 10:55:46 10:59:33 28° 96° (E) 11:03:17 437.445
DX 1 11 Feb 10:59:26 11:03:32 39° 99° (E) 11:07:34 434.975-435.025
BUGSAT 1 11 Feb 11:01:58 11:06:10 87° 252° (WSW) 11:10:22 437.445
ESTCUBE 1 11 Feb 11:08:14 11:12:43 54° 100° (E) 11:17:08 437.505/2401.250
GONETS M04 11 Feb 11:08:41 11:13:20 15° 301° (WNW) 11:18:02
POLYITAN 1 11 Feb 11:08:46 11:12:37 34° 262° (W) 11:16:29 437.675
QB50P2 11 Feb 11:09:22 11:13:12 33° 263° (W) 11:17:02 145.880/145.840
DANDE 11 Feb 11:09:27 11:11:58 12° 53° (NE) 11:14:18 436.750
AO-85 11 Feb 11:09:52 11:14:33 29° 314° (NW) 11:19:19 145.980
Oscar 19 11 Feb 11:11:50 11:14:52 16° 61° (ENE) 11:17:53 437.125/150
Cosmos 2499 11 Feb 11:18:53 11:26:06 28° 293° (WNW) 11:33:27 435.465 / 435.565
SO-50 11 Feb 11:21:26 11:23:07 12° 34° (NE) 11:24:47 436.795
POPSAT HIP 1 11 Feb 11:40:00 11:42:45 17° 267° (W) 11:45:30 437.405
NANOSAT C BR1 11 Feb 11:43:55 11:46:27 15° 268° (W) 11:49:00 145.865
DUCHIFAT 1 11 Feb 11:44:32 11:47:08 16° 267° (W) 11:49:44 145.980
HUMSAT D 11 Feb 11:49:53 11:51:23 12° 297° (WNW) 11:52:53 437.325/437.525
QB50P1 11 Feb 11:53:45 11:55:23 12° 269° (W) 11:57:00 145.935-145.965
Gurwin Techsat 1B 11 Feb 11:55:41 11:58:45 16° 61° (ENE) 12:01:49 435.225
50 SAT 11 Feb 11:56:38 12:00:03 32° 289° (WNW) 12:03:28 437.505
YUBILEINY 11 Feb 11:57:52 12:01:23 13° 56° (ENE) 12:04:54 435.215
VELOX 1 11 Feb 11:59:41 12:03:56 47° 288° (WNW) 12:08:09 145.980
CUSAT 1 11 Feb 12:03:22 12:08:56 49° 74° (ENE) 12:13:06 437.405
PCSat 11 Feb 12:15:13 12:18:35 16° 318° (NW) 12:21:57 145.827
AISAT 11 Feb 12:16:59 12:20:50 30° 291° (WNW) 12:24:39 437.250
UKube-1 11 Feb 12:20:49 12:24:37 31° 291° (WNW) 12:28:23 .
ITAMSAT 1 11 Feb 12:24:23 12:27:16 15° 60° (ENE) 12:30:08 435.822/435.867
AO-7 11 Feb 12:26:02 12:29:25 13° 44° (NE) 12:32:47 29.400- 29.500
SPROUT 11 Feb 12:26:51 12:31:07 77° 285° (WNW) 12:35:22 437.525
JAS-2 11 Feb 12:28:25 12:35:56 64° 72° (ENE) 12:42:46 435.910
TISAT 1 11 Feb 12:29:47 12:33:43 39° 98° (E) 12:37:37 437.305
CUBEBUG 1 11 Feb 12:32:10 12:35:44 25° 292° (WNW) 12:39:17 437.445
DX 1 11 Feb 12:36:22 12:39:26 19° 295° (WNW) 12:42:29 434.975-435.025
ESTCUBE 1 11 Feb 12:46:24 12:49:04 16° 297° (WNW) 12:51:44 437.505/2401.250
Oscar 19 11 Feb 12:48:26 12:53:36 68° 258° (WSW) 12:58:47 437.125/150
DANDE 11 Feb 12:49:45 12:56:42 75° 79° (E) 13:01:50 436.750
RS-15 11 Feb 12:52:52 13:03:34 48° 316° (NW) 13:14:56 29.354- 29.394
SO-50 11 Feb 12:59:51 13:04:39 61° 54° (NE) 13:09:15 436.795
SWISSCUBE 11 Feb 13:16:59 13:21:01 26° 95° (E) 13:25:01 437.505
Gurwin Techsat 1B 11 Feb 13:32:47 13:38:04 71° 258° (WSW) 13:43:24 435.225
CUSAT 1 11 Feb 13:47:09 13:50:17 16° 280° (W) 13:53:01 437.405
YUBILEINY 11 Feb 13:51:22 14:00:11 66° 79° (E) 14:08:54 435.215
ITUPSAT 1 11 Feb 13:54:13 13:58:58 55° 101° (E) 14:03:41 437.325
Cosmos 2491 11 Feb 13:57:37 14:05:19 37° 85° (E) 14:13:00 435.465 / 435.565
ITAMSAT 1 11 Feb 14:00:56 14:06:06 72° 257° (WSW) 14:11:20 435.822/435.867
BEESAT 11 Feb 14:01:31 14:06:19 68° 102° (ESE) 14:11:04 436.000
TISAT 1 11 Feb 14:06:19 14:09:05 17° 294° (WNW) 14:11:51 437.305
AO-7 11 Feb 14:12:17 14:20:23 57° 65° (ENE) 14:28:30 29.400- 29.500
JAS-2 11 Feb 14:15:08 14:21:12 26° 267° (W) 14:26:55 435.910
Cosmos 2504 11 Feb 14:21:37 14:28:05 23° 64° (ENE) 14:34:13 435.465 / 435.565
ISS 11 Feb 14:34:34 14:37:36 36° 137° (SE) 14:40:37 145.825
DANDE 11 Feb 14:34:54 14:38:16 15° 283° (WNW) 14:41:15 436.750
SO-50 11 Feb 14:41:49 14:44:34 15° 252° (WSW) 14:47:18 436.795
STARS 11 Feb 14:52:39 14:55:26 16° 93° (E) 14:58:13 437.465
SWISSCUBE 11 Feb 14:54:31 14:58:49 33° 291° (WNW) 15:03:06 437.505
RS-15 11 Feb 15:11:31 15:20:06 23° 349° (NNW) 15:29:00 29.354- 29.394
KKS-1 11 Feb 15:13:12 15:17:32 52° 100° (E) 15:21:51 437.445
M-CUBED/EXP-1 PRIME 11 Feb 15:17:27 15:21:04 63° 253° (WSW) 15:24:28 437.505
MOZHAYETS 4 11 Feb 15:19:48 15:23:39 25° 95° (E) 15:27:30
AUBIESAT-1 11 Feb 15:25:39 15:29:14 62° 253° (WSW) 15:32:37 437.475
ITUPSAT 1 11 Feb 15:33:18 15:36:21 17° 297° (WNW) 15:39:23 437.325
HORYU 2 11 Feb 15:37:59 15:42:24 86° 257° (WSW) 15:46:51 437.375
BEESAT 11 Feb 15:41:04 15:43:31 14° 299° (WNW) 15:45:59 436.000
YUBILEINY 11 Feb 15:49:18 15:56:12 27° 279° (W) 16:03:06 435.215
Cosmos 2491 11 Feb 15:53:35 16:01:52 48° 285° (WNW) 16:10:14 435.465 / 435.565
CUTE-I 11 Feb 15:54:47 15:57:18 14° 59° (ENE) 15:59:48 437.470
AO-7 11 Feb 16:06:10 16:13:27 33° 263° (W) 16:20:47 29.400- 29.500
Cubesat XI-IV 11 Feb 16:07:58 16:11:26 18° 62° (ENE) 16:14:55 437.490
ISS 11 Feb 16:11:12 16:14:05 29° 334° (NNW) 16:16:58 145.825
Cosmos 2504 11 Feb 16:13:53 16:22:28 76° 266° (W) 16:30:24 435.465 / 435.565
BEESAT 3 11 Feb 16:14:06 16:17:56 48° 117° (ESE) 16:21:47 437.485
LilacSat-2 11 Feb 16:16:50 16:17:38 11° 64° (ENE) 16:18:26 437.200
